Location: Bęczków
(50.8761°N, 20.8028°E)
Time: 00:19:45
(UTC+01:00)

Envisat - Visible Passes

Search period start: 20 March 2019 00:00
Search period end: 30 March 2019 00:00
Orbit: 764 x 766 km, 98.2° (Epoch: 19 March)

Date Brightness Start Highest point End Pass type
(mag) Time Alt. Az. Time Alt. Az. Time Alt. Az.
20 Mar 5.5 19:16:01 10° SW 19:20:02 23° W 19:24:06 10° NW visible
21 Mar 4.3 18:38:07 10° S 18:43:00 45° W 18:47:54 10° NNW visible
22 Mar 6.0 19:43:09 10° WSW 19:45:55 15° W 19:48:41 10° NW visible
23 Mar 5.2 19:04:21 10° SSW 19:08:43 28° W 19:13:07 10° NNW visible
24 Mar 3.9 18:26:44 10° S 18:31:43 56° W 18:36:45 10° NNW visible
25 Mar 5.8 19:31:08 10° SW 19:34:32 18° W 19:37:58 10° NW visible
26 Mar 4.8 18:52:47 10° SSW 18:57:24 34° W 19:02:03 10° NNW visible
27 Mar 6.3 19:59:24 10° W 20:00:29 11° W 20:01:33 10° WNW visible
28 Mar 5.6 19:19:19 10° SW 19:23:11 22° W 19:27:05 10° NW visible
29 Mar 4.4 18:41:19 10° SSW 18:46:06 42° W 18:50:57 10° NNW visible
